KB3UMW-13 Weather Reports


Display with metric or nautical units.
time (UTC)temp
F
wind
direction
speed
MPH
gust
MPH
rain 1hr
in
rain 24hr
in
rain mn
in
humidity
%
barometer
mb
20260504050328 32 46 2.0 2.0 0.00 0.00 0.00 93 1014.8
20260504045825 32 60 1.0 2.0 0.00 0.00 0.00 93 1014.8
20260504045320 31 56 0.0 2.0 0.00 0.00 0.00 92 1014.8
20260504044817 31 63 1.0 2.0 0.00 0.00 0.00 92 1014.5
20260504044315 32 67 0.0 2.0 0.00 0.00 0.00 91 1015.0
20260504043812 32 72 0.0 2.0 0.00 0.00 0.00 91 1014.8
20260504043308 32 63 1.0 2.0 0.00 0.00 0.00 91 1014.8
20260504042806 32 82 0.0 2.0 0.00 0.00 0.00 91 1014.5
20260504042304 32 44 0.0 2.0 0.00 0.00 0.00 91 1014.6
20260504041759 32 27 0.0 2.0 0.00 0.00 0.00 90 1014.8
20260504041255 32 63 1.0 2.0 0.00 0.00 0.00 90 1015.0
20260504040751 32 66 0.0 2.0 0.00 0.00 0.00 90 1014.7
20260504040249 32 87 1.0 2.0 0.00 0.00 0.00 90 1014.7
20260504035744 32 39 1.0 2.0 0.00 0.00 0.00 89 1014.7
20260504035242 32 20 0.0 2.0 0.00 0.00 0.00 89 1015.0
20260504034739 32 44 1.0 2.0 0.00 0.00 0.00 89 1015.0
20260504034237 32 45 1.0 2.0 0.00 0.00 0.00 89 1015.0
20260504033734 33 64 1.0 2.0 0.00 0.00 0.00 88 1015.1
20260504033231 33 49 2.0 2.0 0.00 0.00 0.00 88 1015.1
20260504032728 33 114 0.0 2.0 0.00 0.00 0.00 87 1015.0
20260504032225 33 60 0.0 2.0 0.00 0.00 0.00 86 1015.0
20260504031722 33 65 0.0 2.0 0.00 0.00 0.00 86 1015.2
20260504031219 34 44 0.0 2.0 0.00 0.00 0.00 87 1015.0
20260504030715 34 75 1.0 3.0 0.00 0.00 0.00 85 1015.1
20260504030213 34 66 0.0 2.0 0.00 0.00 0.00 85 1015.1
20260504025709 35 46 2.0 3.0 0.00 0.00 0.00 85 1014.7
20260504025205 34 54 1.0 2.0 0.00 0.00 0.00 84 1014.8
20260504024703 35 40 1.0 2.0 0.00 0.00 0.00 83 1014.6
20260504024159 35 36 2.0 2.0 0.00 0.00 0.00 85 1015.0
20260504023656 35 48 0.0 2.0 0.00 0.00 0.00 83 1015.0
20260504023152 35 27 0.0 2.0 0.00 0.00 0.00 83 1015.0
20260504022648 36 36 0.0 2.0 0.00 0.00 0.00 82 1014.6
20260504022144 36 67 1.0 2.0 0.00 0.00 0.00 80 1014.8
20260504021642 36 19 0.0 3.0 0.00 0.00 0.00 82 1014.7
20260504021138 37 32 2.0 2.0 0.00 0.00 0.00 79 1015.2
20260504020636 37 23 0.0 2.0 0.00 0.00 0.00 81 1014.8
20260504020132 38 76 1.0 2.0 0.00 0.00 0.00 80 1015.0
20260504015629 38 42 0.0 2.0 0.00 0.00 0.00 80 1014.8
20260504015125 38 47 0.0 2.0 0.00 0.00 0.00 78 1014.8
20260504014621 38 48 0.0 3.0 0.00 0.00 0.00 79 1014.8
20260504014118 38 85 1.0 2.0 0.00 0.00 0.00 77 1014.8
20260504013616 39 17 0.0 2.0 0.00 0.00 0.00 77 1014.7
20260504013112 39 44 0.0 3.0 0.00 0.00 0.00 77 1014.5
20260504012610 39 60 1.0 2.0 0.00 0.00 0.00 77 1014.6
20260504012108 39 13 0.0 2.0 0.00 0.00 0.00 76 1014.4
20260504011604 39 20 1.0 2.0 0.00 0.00 0.00 75 1014.7
20260504011100 39 41 1.0 2.0 0.00 0.00 0.00 74 1014.5
20260504010556 40 35 1.0 2.0 0.00 0.00 0.00 77 1014.4
20260504010052 40 51 0.0 2.0 0.00 0.00 0.00 75 1014.5
20260504005549 40 31 1.0 2.0 0.00 0.00 0.00 74 1014.5
20260504005046 40 60 0.0 3.0 0.00 0.00 0.00 71 1014.7
20260504004544 41 35 0.0 2.0 0.00 0.00 0.00 71 1014.6
20260504004041 41 55 0.0 2.0 0.00 0.00 0.00 70 1014.4
20260504003537 41 70 0.0 3.0 0.00 0.00 0.00 70 1014.3
20260504003034 41 35 0.0 2.0 0.00 0.00 0.00 70 1014.4
20260504002531 42 37 1.0 2.0 0.00 0.00 0.00 69 1014.4
20260504002028 42 24 2.0 2.0 0.00 0.00 0.00 67 1014.5
20260504001526 42 18 0.0 3.0 0.00 0.00 0.00 66 1014.3
20260504001022 43 33 1.0 3.0 0.00 0.00 0.00 64 1014.4
20260504000519 44 58 3.0 3.0 0.00 0.00 0.00 64 1014.3
20260504000017 45 337 1.0 2.0 0.00 0.00 0.00 62 1014.7
20260503235515 46 101 0.0 3.0 0.00 0.00 0.00 58 1014.4
20260503235012 46 103 0.0 2.0 0.00 0.00 0.00 61 1014.4
20260503234509 46 30 1.0 5.0 0.00 0.00 0.00 52 1014.5
20260503234008 47 119 2.0 3.0 0.00 0.00 0.00 56 1014.6
20260503233503 48 117 1.0 5.0 0.00 0.00 0.00 55 1014.4
20260503232959 48 129 2.0 4.0 0.00 0.00 0.00 51 1014.4
20260503232456 48 148 5.0 7.0 0.00 0.00 0.00 49 1014.5
20260503231954 48 117 3.0 5.0 0.00 0.00 0.00 48 1014.6
20260503231452 49 130 1.0 4.0 0.00 0.00 0.00 51 1014.4
20260503230948 49 154 0.0 9.0 0.00 0.00 0.00 48 1014.5
20260503230445 49 163 3.0 9.0 0.00 0.00 0.00 49 1014.4
20260503225942 49 162 1.0 4.0 0.00 0.00 0.00 47 1014.3
20260503225439 50 137 2.0 7.0 0.00 0.00 0.00 49 1014.4
20260503224934 50 158 2.0 5.0 0.00 0.00 0.00 49 1014.3
20260503224432 50 75 4.0 6.0 0.00 0.00 0.00 46 1014.4
20260503223929 50 139 7.0 8.0 0.00 0.00 0.00 48 1014.4
20260503223427 50 124 1.0 8.0 0.00 0.00 0.00 46 1014.1
20260503222922 50 138 2.0 6.0 0.00 0.00 0.00 46 1014.5
20260503222421 50 141 3.0 6.0 0.00 0.00 0.00 47 1014.4
20260503221919 50 88 2.0 3.0 0.00 0.00 0.00 47 1014.4
20260503221417 50 135 0.0 4.0 0.00 0.00 0.00 47 1014.4
20260503220913 50 53 0.0 6.0 0.00 0.00 0.00 44 1014.4
20260503220410 51 113 2.0 4.0 0.00 0.00 0.00 48 1014.3
20260503215907 51 152 7.0 11.0 0.00 0.00 0.00 42 1014.7
20260503215404 51 140 4.0 5.0 0.00 0.00 0.00 48 1014.5
20260503214901 51 74 2.0 5.0 0.00 0.00 0.00 44 1014.5
20260503214359 52 111 3.0 4.0 0.00 0.00 0.00 48 1014.4
20260503213856 51 124 2.0 10.0 0.00 0.00 0.00 47 1014.5
20260503213354 51 161 4.0 7.0 0.00 0.00 0.00 42 1014.5
20260503212850 52 141 2.0 5.0 0.00 0.00 0.00 44 1014.5
20260503212348 52 38 0.0 6.0 0.00 0.00 0.00 49 1014.5
20260503211845 52 135 1.0 6.0 0.00 0.00 0.00 46 1014.5
20260503211342 52 156 3.0 9.0 0.00 0.00 0.00 45 1014.3
20260503210837 52 20 2.0 7.0 0.00 0.00 0.00 49 1014.5
20260503210335 53 143 4.0 8.0 0.00 0.00 0.00 43 1014.6
20260503205829 53 148 1.0 7.0 0.00 0.00 0.00 40 1014.7
20260503205326 54 144 3.0 7.0 0.00 0.00 0.00 44 1014.7
20260503204823 54 138 4.0 8.0 0.00 0.00 0.00 44 1014.7
20260503204320 54 139 3.0 4.0 0.00 0.00 0.00 46 1014.5
20260503203817 55 36 2.0 5.0 0.00 0.00 0.00 49 1014.8
20260503203315 55 341 5.0 5.0 0.00 0.00 0.00 42 1014.7
20260503202812 55 139 3.0 7.0 0.00 0.00 0.00 45 1014.6
20260503202310 54 148 3.0 11.0 0.00 0.00 0.00 47 1014.8
20260503201808 55 137 3.0 6.0 0.00 0.00 0.00 47 1015.0
20260503201304 54 147 6.0 6.0 0.00 0.00 0.00 46 1015.0
20260503200802 54 155 7.0 10.0 0.00 0.00 0.00 46 1015.0
20260503200257 54 147 5.0 11.0 0.00 0.00 0.00 44 1015.1
20260503195749 56 147 4.0 11.0 0.00 0.00 0.00 47 1015.3
20260503195245 55 146 2.0 7.0 0.00 0.00 0.00 43 1015.2
20260503194743 56 162 2.0 7.0 0.00 0.00 0.00 38 1015.2
20260503194238 55 64 3.0 8.0 0.00 0.00 0.00 41 1015.1
20260503193735 54 214 1.0 5.0 0.00 0.00 0.00 53 1015.5
20260503193231 55 9 3.0 5.0 0.00 0.00 0.00 42 1015.6
20260503192727 55 323 1.0 10.0 0.00 0.00 0.00 43 1015.4
20260503192222 52 349 2.0 9.0 0.00 0.00 0.00 52 1015.5
20260503191719 53 120 2.0 9.0 0.00 0.00 0.00 45 1015.5
20260503191216 53 155 3.0 14.0 0.00 0.00 0.00 48 1015.6
20260503190713 52 142 4.0 7.0 0.00 0.00 0.00 46 1015.7
20260503190209 51 140 3.0 6.0 0.00 0.00 0.00 52 1015.7
20260503185707 53 31 3.0 7.0 0.00 0.00 0.00 50 1015.8
20260503185202 53 150 2.0 11.0 0.00 0.00 0.00 55 1015.7
20260503184657 54 14 7.0 9.0 0.00 0.00 0.00 50 1015.7
20260503184154 52 54 3.0 8.0 0.00 0.00 0.00 55 1015.9
20260503183650 50 176 3.0 9.0 0.00 0.00 0.00 50 1015.9
20260503183147 54 55 5.0 11.0 0.00 0.00 0.00 44 1015.8
20260503182645 54 29 5.0 7.0 0.00 0.00 0.00 41 1015.9
20260503182144 55 37 2.0 4.0 0.00 0.00 0.00 53 1016.0
20260503181640 52 144 3.0 5.0 0.00 0.00 0.00 47 1015.8
20260503181137 52 136 4.0 12.0 0.00 0.00 0.00 49 1016.1
20260503180634 51 131 4.0 8.0 0.00 0.00 0.00 52 1015.9
20260503180132 51 148 2.0 12.0 0.00 0.00 0.00 52 1016.0
20260503175629 53 129 3.0 6.0 0.00 0.00 0.00 45 1016.1
20260503175126 52 138 2.0 9.0 0.00 0.00 0.00 44 1016.0
20260503174622 53 93 3.0 15.0 0.00 0.00 0.00 52 1016.0
20260503174120 53 144 7.0 9.0 0.00 0.00 0.00 50 1016.0
20260503173614 50 1 7.0 12.0 0.00 0.00 0.00 47 1016.1
20260503173111 52 161 3.0 9.0 0.00 0.00 0.00 49 1016.5
20260503172608 50 57 3.0 9.0 0.00 0.00 0.00 47 1016.4
20260503172106 50 99 2.0 5.0 0.00 0.00 0.00 54 1016.4
20260503171601 49 357 0.0 7.0 0.00 0.00 0.00 50 1016.5
20260503171059 50 59 1.0 12.0 0.00 0.00 0.00 55 1016.5
20260503170555 49 153 5.0 12.0 0.00 0.00 0.00 55 1016.6
20260503150948 46 23 2.0 8.0 0.00 0.00 0.00 63 1016.9
20260503150439 48 107 3.0 6.0 0.00 0.00 0.00 53 1016.8
20260503131326 39 122 2.0 5.0 0.00 0.00 0.00 75 1016.6
20260503130824 40 131 3.0 6.0 0.00 0.00 0.00 74 1016.9
20260503130321 40 119 3.0 6.0 0.00 0.00 0.00 79 1016.7
20260503110702 30 133 3.0 3.0 0.00 0.00 0.00 96 1015.4
20260503110159 30 122 2.0 3.0 0.00 0.00 0.00 96 1015.6
20260503100126 30 170 0.0 4.0 0.00 0.00 0.00 95 1014.4
20260503081516 32 117 2.0 8.0 0.00 0.00 0.00 91 1014.3
20260503081013 32 92 2.0 4.0 0.00 0.00 0.00 91 1014.4
20260503080509 32 24 3.0 4.0 0.00 0.00 0.00 90 1014.0
20260503072443 33 120 2.0 4.0 0.00 0.00 0.00 90 1013.8
20260503071940 33 110 2.0 8.0 0.00 0.00 0.00 89 1013.7
20260503071437 33 67 1.0 3.0 0.00 0.00 0.00 90 1013.9